Location: Unspecified
(51.0000°N, 12.0000°E)
Time: 16:51:30
(UTC+02:00)

Tiangong 2 - Pass Details

Date: 19 July 2018
Orbit: 383 x 393 km, 42.8° (Epoch: 15 October)

Event Time Altitude Azimuth Distance (km) Brightness Sun altitude
Rises 22:15:49 0° 255° (WSW) 2,261 5.4 -7.8°
Reaches altitude 10° 22:18:28 10° 231° (SW) 1,404 4.0 -8.1°
Maximum altitude 22:20:24 15° 193° (SSW) 1,135 3.1 -8.3°
Enters shadow 22:22:07 11° 159° (SSE) 1,349 3.2 -8.5°
